Location: Cannifist
(18.2333°N, 63.0167°W)
Time: 15:31:59
(UTC+00:00)

Envisat - Pass Details

Date: 24 June 2021
Orbit: 764 x 766 km, 98.2° (Epoch: 02 August)

Event Time Altitude Azimuth Distance (km) Brightness Sun altitude
Rises 08:25:32 0° 35° (NE) 3,223 7.5 -16.0°
Reaches altitude 10° 08:28:28 10° 53° (NE) 2,295 6.9 -15.4°
Maximum altitude 08:32:02 19° 98° (E) 1,740 5.5 -14.6°
Drops below altitude 10° 08:35:35 10° 143° (SE) 2,291 5.5 -13.9°
Sets 08:38:29 0° 161° (SSE) 3,215 6.1 -13.3°
